Location: Salillas
(41.9950°N, 0.2228°W)
Time: 01:44:44
(UTC+00:00)

COSMOS 2455 - Pass Details

Date: 29 March 2020
Orbit: 899 x 910 km, 67.1° (Epoch: 05 June)

Event Time Altitude Azimuth Distance (km) Brightness Sun altitude
Rises 21:03:41 0° 338° (NNW) 3,542 6.8 -28.4°
Reaches altitude 10° 21:06:51 10° 354° (N) 2,599 5.7 -28.9°
Enters shadow 21:11:06 21° 39° (NE) 1,914 4.5 -29.5°
